International Virtual Aviation Organisation

Russian Federation and Kazakhstan MCD

 

Карточка аэропорта ULAA

Внимание!
Информация на этой странице в стадии наполнения.
Если вы не увидели какой-то информации, или заметили неточность - пожалуйста сообщите нам!
Спасибо!
Команда RU-STAFF
Название аэропортаТалаги
Название аэропорта (англ.)Talagi
Превышение62 ft. (18.9 m.)
Координаты64°36.018', 40°43.002'
Высота перехода800m
Эшелон переходаQFE>=760mm:FL040; QFE<760=>733:FL050; QFE<733:FL060
Коды ответчика3120-3127
Зона ОрВДАрхангельск РПИ (ULAA)
Данные METARULAA 091400Z VRB01MPS 9999 SCT033 19/11 Q1015 R08/CLRD68 NOSIG RMK QFE760/1014
Проноз погоды (TAF)ULAA 091100Z 0912/1012 30003MPS 9999 BKN020 TEMPO 0912/0918 32003MPS -SHRA BKN017CB FM091800 10003MPS 9999 BKN016 TEMPO 0918/1012 12003MPS 6000 -SHRA FEW007 BKN016CB
NOTAMshow/hide NOTAM
AWOS   TABLE

Информация о ВПП


Диспетчерские позиции

Позывной Наименование органа УВД Частота
ULAA_APPАрхангельск-Подход122.0
ULAA_TWRАрхангельск-Вышка121.8



Спутниковое изображение